When you browse on this site, cookies collect data to enhance your experience and personalize the content and advertising you see.
Visit our Privacy Policy to learn more. By continuing to use the site, you agree to this use of cookies and data.

Hourly Weather Leipzig

Today, 5 August, Wednesday

Time Temperature Precipitation Wind Pressure Humidity
00:00 +15°C° 0 mm 1 mps 752 mmHg 79%
01:00 +15°C° 0 mm 1 mps 752 mmHg 80%
02:00 +14°C° 0 mm 1 mps 753 mmHg 81%
03:00 +14°C° 0 mm 2 mps 753 mmHg 82%
04:00 +14°C° 0 mm 2 mps 753 mmHg 83%
05:00 +15°C° 0 mm 2 mps 753 mmHg 80%
06:00 +16°C° 0 mm 2 mps 753 mmHg 76%
07:00 +17°C° 0 mm 3 mps 753 mmHg 71%
08:00 +19°C° 0 mm 3 mps 754 mmHg 63%
09:00 +21°C° 0 mm 3 mps 754 mmHg 56%
10:00 +24°C° 0 mm 2 mps 754 mmHg 48%
11:00 +25°C° 0 mm 2 mps 754 mmHg 45%
12:00 +26°C° 0 mm 2 mps 754 mmHg 41%
13:00 +27°C° 0 mm 1 mps 753 mmHg 37%
14:00 +27°C° 0 mm 1 mps 753 mmHg 37%
15:00 +27°C° 0 mm 1 mps 753 mmHg 37%
16:00 +27°C° 0 mm 1 mps 753 mmHg 36%
17:00 +26°C° 0 mm 1 mps 753 mmHg 41%
18:00 +24°C° 0 mm 1 mps 753 mmHg 46%
19:00 +23°C° 0 mm 1 mps 753 mmHg 52%
20:00 +21°C° 0 mm 2 mps 753 mmHg 53%
21:00 +20°C° 0 mm 2 mps 754 mmHg 55%
22:00 +18°C° 0 mm 2 mps 754 mmHg 57%
23:00 +18°C° 0 mm 2 mps 754 mmHg 60%

Tomorrow, 6 August, Thursday

Time Temperature Precipitation Wind Pressure Humidity
00:00 +17°C° 0 mm 2 mps 754 mmHg 63%
01:00 +18°C° 0 mm 1 mps 755 mmHg 66%
02:00 +16°C° 0 mm 1 mps 755 mmHg 69%
03:00 +16°C° 0 mm 1 mps 755 mmHg 71%
04:00 +16°C° 0 mm 1 mps 755 mmHg 73%
05:00 +18°C° 0 mm 1 mps 755 mmHg 71%
06:00 +19°C° 0 mm 1 mps 755 mmHg 68%
07:00 +20°C° 0 mm 1 mps 755 mmHg 66%
08:00 +22°C° 0 mm 1 mps 755 mmHg 60%
09:00 +24°C° 0 mm 1 mps 756 mmHg 54%
10:00 +25°C° 0 mm 2 mps 756 mmHg 48%
11:00 +26°C° 0 mm 2 mps 756 mmHg 45%
12:00 +27°C° 0 mm 2 mps 755 mmHg 42%
13:00 +28°C° 0 mm 2 mps 755 mmHg 39%
14:00 +28°C° 0 mm 2 mps 755 mmHg 39%
15:00 +29°C° 0 mm 2 mps 755 mmHg 39%
16:00 +29°C° 0 mm 2 mps 755 mmHg 39%
17:00 +28°C° 0 mm 2 mps 755 mmHg 45%
18:00 +26°C° 0 mm 2 mps 755 mmHg 52%
19:00 +25°C° 0 mm 2 mps 755 mmHg 58%
20:00 +24°C° 0 mm 2 mps 755 mmHg 64%
21:00 +23°C° 0 mm 2 mps 756 mmHg 70%
22:00 +20°C° 0 mm 2 mps 756 mmHg 75%
23:00 +20°C° 0 mm 2 mps 756 mmHg 79%

Day after tomorrow, 7 August, Friday

Time Temperature Precipitation Wind Pressure Humidity
00:00 +19°C° 0 mm 2 mps 756 mmHg 83%
01:00 +20°C° 0 mm 1 mps 756 mmHg 86%
02:00 +20°C° 0 mm 1 mps 756 mmHg 88%
03:00 +19°C° 0 mm 1 mps 756 mmHg 90%
04:00 +19°C° 0 mm 1 mps 756 mmHg 91%
05:00 +20°C° 0 mm 1 mps 756 mmHg 87%
06:00 +21°C° 0 mm 1 mps 756 mmHg 83%
07:00 +22°C° 0 mm 1 mps 756 mmHg 79%
08:00 +24°C° 0 mm 2 mps 756 mmHg 73%
09:00 +26°C° 0 mm 2 mps 756 mmHg 67%
10:00 +27°C° 0 mm 2 mps 756 mmHg 60%
11:00 +29°C° 0 mm 2 mps 756 mmHg 56%
12:00 +30°C° 0 mm 2 mps 756 mmHg 52%
13:00 +31°C° 0 mm 2 mps 756 mmHg 48%
14:00 +31°C° 0 mm 2 mps 755 mmHg 47%
15:00 +31°C° 0 mm 2 mps 755 mmHg 46%
16:00 +32°C° 0 mm 2 mps 755 mmHg 45%
17:00 +31°C° 0 mm 2 mps 755 mmHg 51%
18:00 +30°C° 0 mm 2 mps 755 mmHg 56%
19:00 +28°C° 0 mm 2 mps 755 mmHg 62%
20:00 +27°C° 0 mm 2 mps 755 mmHg 66%
21:00 +26°C° 0 mm 1 mps 755 mmHg 70%
22:00 +24°C° 0 mm 1 mps 755 mmHg 74%
23:00 +24°C° 0 mm 1 mps 755 mmHg 77%

8 August, Saturday

Time Temperature Precipitation Wind Pressure Humidity
00:00 +23°C° 0 mm 1 mps 755 mmHg 79%
01:00 +23°C° 0 mm 1 mps 755 mmHg 81%
02:00 +22°C° 0 mm 1 mps 755 mmHg 83%
03:00 +22°C° 0 mm 1 mps 755 mmHg 85%
04:00 +21°C° 0 mm 1 mps 754 mmHg 86%
05:00 +22°C° 0 mm 1 mps 755 mmHg 83%
06:00 +23°C° 0 mm 1 mps 755 mmHg 79%
07:00 +24°C° 0 mm 1 mps 755 mmHg 75%
08:00 +26°C° 0 mm 1 mps 755 mmHg 68%
09:00 +28°C° 0 mm 1 mps 755 mmHg 62%
10:00 +30°C° 0 mm 1 mps 755 mmHg 55%
11:00 +31°C° 0 mm 1 mps 754 mmHg 51%
12:00 +32°C° 0 mm 1 mps 754 mmHg 47%
13:00 +33°C° 0 mm 1 mps 754 mmHg 43%
14:00 +33°C° 0 mm 1 mps 754 mmHg 43%
15:00 +34°C° 0 mm 2 mps 754 mmHg 42%
16:00 +34°C° 0 mm 2 mps 753 mmHg 41%
17:00 +32°C° 0 mm 2 mps 753 mmHg 46%
18:00 +30°C° 0 mm 2 mps 753 mmHg 50%
19:00 +29°C° 0 mm 2 mps 753 mmHg 54%
20:00 +28°C° 0 mm 2 mps 753 mmHg 55%
21:00 +27°C° 0 mm 2 mps 754 mmHg 56%
22:00 +25°C° 0 mm 2 mps 754 mmHg 58%
23:00 +25°C° 0 mm 1 mps 754 mmHg 60%

9 August, Sunday

Time Temperature Precipitation Wind Pressure Humidity
00:00 +24°C° 0 mm 1 mps 754 mmHg 63%
01:00 +24°C° 0 mm 1 mps 754 mmHg 66%
02:00 +23°C° 0 mm 1 mps 753 mmHg 68%
03:00 +23°C° 0 mm 1 mps 753 mmHg 70%
04:00 +22°C° 0 mm 1 mps 753 mmHg 72%
05:00 +23°C° 0 mm 1 mps 753 mmHg 71%
06:00 +24°C° 0 mm 1 mps 754 mmHg 70%
07:00 +25°C° 0 mm 1 mps 754 mmHg 68%
08:00 +27°C° 0 mm 2 mps 754 mmHg 62%
09:00 +28°C° 0 mm 2 mps 754 mmHg 56%
10:00 +30°C° 0 mm 3 mps 754 mmHg 50%
11:00 +31°C° 0 mm 3 mps 754 mmHg 47%
12:00 +31°C° 0 mm 3 mps 753 mmHg 44%
13:00 +33°C° 0 mm 3 mps 753 mmHg 41%
14:00 +33°C° 0 mm 3 mps 753 mmHg 41%
15:00 +33°C° 0 mm 3 mps 753 mmHg 41%
16:00 +33°C° 0 mm 3 mps 753 mmHg 41%
17:00 +30°C° 0 mm 3 mps 753 mmHg 47%
18:00 +29°C° 0 mm 3 mps 753 mmHg 53%
19:00 +28°C° 0 mm 3 mps 753 mmHg 59%
20:00 +27°C° 0 mm 2 mps 753 mmHg 63%
21:00 +25°C° 0 mm 2 mps 753 mmHg 67%
22:00 +24°C° 0 mm 2 mps 753 mmHg 70%
23:00 +24°C° 0 mm 2 mps 753 mmHg 73%

10 August, Monday

Time Temperature Precipitation Wind Pressure Humidity
00:00 +23°C° 0 mm 1 mps 753 mmHg 75%
01:00 +22°C° 0 mm 1 mps 753 mmHg 78%
02:00 +22°C° 0 mm 1 mps 753 mmHg 80%
03:00 +22°C° 0 mm 1 mps 753 mmHg 83%
04:00 +21°C° 0 mm 1 mps 752 mmHg 85%
05:00 +22°C° 0 mm 1 mps 752 mmHg 81%
06:00 +23°C° 0 mm 1 mps 753 mmHg 78%
07:00 +24°C° 0 mm 1 mps 753 mmHg 75%
08:00 +25°C° 0 mm 1 mps 753 mmHg 69%
09:00 +27°C° 0 mm 2 mps 753 mmHg 63%
10:00 +28°C° 0 mm 2 mps 753 mmHg 57%
11:00 +29°C° 0 mm 2 mps 752 mmHg 52%
12:00 +30°C° 0 mm 2 mps 752 mmHg 47%
13:00 +33°C° 0 mm 3 mps 752 mmHg 41%
14:00 +32°C° 0 mm 2 mps 752 mmHg 40%
15:00 +32°C° 0 mm 2 mps 752 mmHg 39%
16:00 +32°C° 0 mm 2 mps 752 mmHg 38%
17:00 +31°C° 0 mm 2 mps 751 mmHg 43%
18:00 +30°C° 0 mm 2 mps 751 mmHg 48%
19:00 +28°C° 0 mm 2 mps 751 mmHg 53%
20:00 +27°C° 0 mm 2 mps 751 mmHg 56%
21:00 +26°C° 0 mm 2 mps 752 mmHg 59%
22:00 +25°C° 0 mm 2 mps 752 mmHg 61%
23:00 +25°C° 0 mm 2 mps 752 mmHg 64%
Show more